SCP
0 0 0 0 0 0 0 0 0 0 0 0 0 0 0 0 0 0 0 0 0 0 0 0 0 0 0 0 0 0 0 0 0 0 0 0 0 0 0 0 0 0 0 0 0
0 0 0 0 0 0 0 0 0 0 0 0 0 0 0 0 0 0 0 0 0 0 0 0 0 0 0 0 0 0 0 0 0 0 0 0 0 0 0 0 0 0 0 0 0
0 0 0 0 0 0 0 0 0 0 0 0 0 0 0 0 0 0 0 0 0 0 0 0 0 0 0 0 0 0 0 0 0 0 0 0 0 0 0 0 0 0 0 0 0
0 0 0 0 0 0 0 0 0 0 0 0 0 0 0 0 0 0 0 0 0 0 0 0 0 0 0 0 0 0 0 0 0 0 0 0 0 0 0 0 0 0 0 0 0
0 0 0 0 0 0 0 0 0 0 0 0 0 0 0 0 0 0 0 0 0 0 0 0 0 0 0 0 0 0 0 0 0 0 0 0 0 0 0 0 0 0 0 0 0
0 0 0 0 0 0 0 0 0 0 0 0 0 0 0 0 0 0 0 0 0 0 0 0 0 0 0 0 0 0 0 0 0 0 0 0 0 0 0 0 0 0 0 0 0
0 0 0 0 0 0 0 0 0 0 0 0 0 0 0 0 0 0 0 0 0 0 0 0 0 0 0 0 0 0 0 0 0 0 0 0 0 0 0 0 0 0 0 0 0
0 0 0 0 0 0 0 0 0 0 0 0 0 0 0 0 0 0 0 0 0 0 0 0 0 0 0 0 0 0 0 0 0 0 0 0 0 0 0 0 0 0 0 0 0
0 0 0 0 0 0 0 0 0 0 0 0 0 0 0 0 0 0 0 0 0 0 0 0 0 0 0 0 0 0 0 0 0 0 0 0 0 0 0 0 0 0 0 0 0
0 0 0 0 0 0 0 0 0 0 0 0 0 0 0 0 0 0 0 0 0 0 0 0 0 0 0 0 0 0 0 0 0 0 0 0 0 0 0 0 0 0 0 0 0
0 0 0 0 0 0 0 0 0 0 0 0 0 0 0 0 0 0 0 0 0 0 0 0 0 0 0 0 0 0 0 0 0 0 0 0 0 0 0 0 0 0 0 0 0
0 0 0 0 0 0 0 0 0 0 0 0 0 0 0 0 0 0 0 0 0 0 0 0 0 0 0 0 0 0 0 0 0 0 0 0 0 0 0 0 0 0 0 0 0
0 0 0 0 0 0 0 0 0 0 0 0 0 0 0 0 0 0 0 0 0 0 0 0 0 0 0 0 0 0 0 0 0 0 0 0 0 0 0 0 0 0 0 0 0
0 0 0 0 0 0 0 0 0 0 0 0 0 0 0 0 0 0 0 0 0 0 0 0 0 0 0 0 0 0 0 0 0 0 0 0 0 0 0 0 0 0 0 0 0
0 0 0 0 0 0 0 0 0 0 0 0 0 0 0 0 0 0 0 0 0 0 0 0 0 0 0 0 0 0 0 0 0 0 0 0 0 0 0 0 0 0 0 0 0
0 0 0 0 0 0 0 0 0 0 0 0 0 0 0 0 0 0 0 0 0 0 0 0 0 0 0 0 0 0 0 0 0 0 0 0 0 0 0 0 0 0 0 0 0
0 0 0 0 0 0 0 0 0 0 0 0 0 0 0 0 0 0 0 0 0 0 0 0 0 0 0 0 0 0 0 0 0 0 0 0 0 0 0 0 0 0 0 0 0
0 0 0 0 0 0 0 0 0 0 0 0 0 0 0 0 0 0 0 0 0 0 0 0 0 0 0 0 0 0 0 0 0 0 0 0 0 0 0 0 0 0 0 0 0
0 0 0 0 0 0 0 0 0 0 0 0 0 0 0 0 0 0 0 0 0 0 0 0 0 0 0 0 0 0 0 0 0 0 0 0 0 0 0 0 0 0 0 0 0
0 0 0 0 0 0 0 0 0 0 0 0 0 0 0 0 0 0 0 0 0 0 0 0 0 0 0 0 0 0 0 0 0 0 0 0 0 0 0 0 0 0 0 0 0
0 0 0 0 0 0 0 0 0 0 0 0 0 0 0 0 0 0 0 0 0 0 0 0 0 0 0 0 0 0 0 0 0 0 0 0 0 0 0 0 0 0 0 0 0
0 0 0 0 0 0 0 0 0 0 0 0 0 0 0 0 0 0 0 0 0 0 0 0 0 0 0 0 0 0 0 0 0 0 0 0 0 0 0 0 0 0 0 0 0
0 0 0 0 0 0 0 0 0 0 0 0 0 0 0 0 0 0 0 0 0 0 0 0 0 0 0 0 0 0 0 0 0 0 0 0 0 0 0 0 0 0 0 0 0
0 0 0 0 0 0 0 0 0 0 0 0 0 0 0 0 0 0 0 0 0 0 0 0 0 0 0 0 0 0 0 0 0 0 0 0 0 0 0 0 0 0 0 0 0
0 0 0 0 0 0 0 0 0 0 0 0 0 0 0 0 0 0 0 0 0 0 0 0 0 0 0 0 0 0 0 0 0 0 0 0 0 0 0 0 0 0 0 0 0
0 0 0 0 0 0 0 0 0 0 0 0 0 0 0 0 0 0 0 0 0 0 0 0 0 0 0 0 0 0 0 0 0 0 0 0 0 0 0 0 0 0 0 0 0
0 0 0 0 0 0 0 0 0 0 0 0 0 0 0 0 0 0 0 0 0 0 0 0 0 0 0 0 0 0 0 0 0 0 0 0 0 0 0 0 0 0 0 0 0
Wind_Speed_500mb
9 9 9 9 10 11 12 13 14 15 16 18 20 21 23 25 26 27 27 15 11 12 11 9 7 3 2 4 5 5 9 2 7 11 5 5 11 1 10 9 4 8 15 22 29
14 14 13 13 13 14 15 16 17 17 19 21 22 24 26 28 30 31 15 9 9 7 8 9 7 4 4 3 3 8 7 12 7 7 2 9 4 15 9 11 8 10 22 19 15
19 18 18 17 17 17 18 18 20 22 22 24 25 26 28 28 30 6 1 1 2 6 12 11 8 2 2 0 0 4 8 5 4 11 9 5 8 5 6 11 4 17 36 18 12
23 22 22 22 21 21 21 22 23 24 25 26 27 27 26 23 8 4 5 5 4 7 11 11 4 1 3 1 3 2 10 10 7 3 6 5 8 11 14 28 20 29 11 7 5
26 25 26 26 26 26 26 27 27 27 26 26 25 26 25 15 18 22 18 15 13 13 17 14 9 5 4 4 3 5 6 8 19 22 22 20 24 15 43 36 2 8 8 9 12
30 29 29 31 31 29 29 28 28 27 27 27 25 25 23 17 20 21 20 22 22 20 22 17 6 9 4 5 7 2 9 21 22 34 21 11 5 2 15 13 11 5 6 9 13
32 31 30 30 31 31 29 30 30 30 30 29 27 25 29 42 27 21 21 23 21 21 21 20 17 11 7 2 3 4 9 14 15 8 8 10 2 13 1 8 14 12 10 11 14
31 31 31 32 32 33 34 31 32 32 31 29 28 24 22 29 30 33 36 30 20 19 18 16 15 14 7 3 8 6 8 7 7 3 1 11 15 3 18 26 14 10 8 8 11
29 30 30 31 32 32 33 32 30 32 31 28 26 18 20 27 25 30 28 27 25 22 18 13 15 7 7 10 8 8 7 8 16 4 3 6 12 7 32 28 13 12 12 13 14
31 29 29 29 31 35 32 30 30 31 32 30 30 13 31 17 14 17 25 23 16 19 15 14 8 6 4 7 11 12 9 8 11 2 6 2 14 15 38 23 21 20 20 20 21
34 31 28 27 28 31 29 25 20 17 27 25 11 13 8 20 18 17 24 27 18 16 11 7 7 17 27 19 5 9 9 10 8 5 2 12 11 10 22 26 24 24 27 30 34
37 33 30 28 27 30 29 16 14 11 20 33 48 51 42 17 13 26 30 25 17 11 14 5 15 21 8 9 9 4 6 11 9 8 10 10 13 7 16 10 15 26 32 37 43
38 37 34 32 32 34 36 31 23 14 12 20 46 48 62 51 27 33 43 21 10 12 15 15 8 16 12 8 10 9 13 10 12 8 3 6 10 8 10 25 26 25 31 37 43
44 41 41 41 39 42 44 24 29 9 8 12 13 13 25 27 16 37 47 21 8 22 13 13 9 12 9 12 18 10 15 12 7 6 8 4 9 4 8 9 12 24 31 34 37
50 40 46 56 38 29 20 21 16 9 12 2 7 10 20 20 19 7 37 16 14 14 13 14 14 11 13 17 14 12 11 13 8 8 2 4 1 10 13 9 11 22 31 34 36
63 55 50 56 55 44 29 19 32 7 21 6 9 10 10 5 3 10 10 9 9 10 4 9 4 13 16 6 14 18 12 13 9 6 2 13 12 8 11 12 13 26 33 38 38
59 61 57 59 69 56 41 37 6 11 0 11 9 10 5 9 4 7 11 12 13 10 11 2 9 6 8 9 4 9 13 1 5 1 10 3 7 15 10 8 26 41 50 44 40
60 64 62 71 66 62 51 10 12 14 14 6 8 7 14 14 9 10 11 11 11 5 6 13 9 21 13 13 14 12 13 9 13 7 6 1 11 10 0 5 33 61 60 51 45
60 56 68 75 76 76 51 15 18 13 11 17 7 8 9 10 12 8 15 13 19 22 15 12 10 2 6 7 12 10 8 6 13 3 6 8 8 3 5 6 28 49 58 56 49
55 64 72 77 73 78 22 28 16 14 9 8 25 18 19 14 15 16 19 12 12 23 11 11 3 2 4 9 7 8 13 7 4 3 8 8 9 11 14 18 17 29 51 58 48
52 33 36 66 62 37 16 12 14 21 20 14 25 16 13 16 18 13 14 5 11 12 20 10 8 2 7 11 18 7 6 4 8 9 10 3 11 10 18 28 37 45 62 63 54
55 12 24 48 25 7 25 12 16 14 40 10 4 10 20 23 18 16 23 8 18 22 18 13 7 8 14 2 3 3 14 14 10 11 5 5 13 4 9 35 51 50 65 62 54
26 29 31 58 17 21 3 13 18 14 18 18 26 15 5 15 6 7 11 5 22 13 16 12 6 4 4 1 3 10 11 7 7 7 15 10 10 8 14 23 37 49 62 57 51
17 6 15 35 12 22 30 18 17 21 10 21 10 13 11 17 14 17 16 7 13 7 15 13 10 11 11 8 3 9 11 11 11 10 10 23 6 5 9 16 33 48 53 50 51
19 7 10 6 21 7 4 16 22 18 21 25 7 33 30 15 17 14 17 8 1 18 17 18 15 14 6 2 5 3 8 14 19 22 19 21 18 16 21 25 47 49 39 44 50
14 9 9 4 4 13 14 7 23 27 16 14 30 26 29 22 22 18 27 13 10 7 13 4 6 11 10 5 3 10 29 18 25 11 11 3 14 9 13 26 40 43 37 41 45
18 12 9 11 6 7 8 12 10 3 6 10 7 1 21 20 2 14 15 22 20 18 15 13 10 7 5 4 7 12 33 31 14 10 16 20 19 11 8 19 45 39 38 41 45
Wind_Direction_500mb
264 271 275 280 289 295 299 302 305 311 314 313 313 314 315 315 313 311 311 294 266 244 241 239 221 229 332 62 45 88 61 189 226 162 239 349 11 333 322 261 292 296 317 316 310
265 268 269 274 278 283 289 294 300 301 303 305 307 309 312 314 314 308 292 284 267 238 204 180 174 120 80 59 27 81 109 223 215 206 233 316 307 320 333 317 287 304 334 325 303
266 266 267 269 273 278 282 286 290 293 297 301 304 307 310 318 321 330 197 34 116 163 161 155 145 34 78 268 208 132 192 227 279 237 283 289 294 259 292 309 292 341 321 331 274
266 269 270 272 273 276 277 280 283 287 292 295 298 302 305 312 310 303 224 216 201 190 187 191 218 52 83 246 197 301 247 231 282 296 306 283 301 285 246 270 302 323 354 80 53
264 268 272 275 277 278 279 281 283 285 288 291 295 299 304 288 263 270 259 252 254 242 226 224 239 193 184 206 180 185 279 264 278 281 280 276 268 267 282 304 290 128 59 38 15
264 266 269 273 274 276 279 279 280 285 288 290 291 291 290 265 266 264 260 256 256 250 237 232 236 224 192 201 177 319 289 289 290 280 273 237 282 158 87 62 79 81 39 7 353
260 262 264 267 273 273 273 277 278 279 282 287 288 287 274 265 266 262 262 257 250 242 238 230 230 199 176 285 278 326 330 329 266 279 235 172 222 231 36 42 40 20 8 358 3
262 263 264 266 267 272 273 273 275 278 279 283 285 284 262 265 254 253 252 248 237 229 226 228 219 216 206 168 21 29 48 355 286 156 104 156 265 65 49 8 47 36 36 32 25
264 268 270 271 270 267 270 275 275 277 279 279 280 264 265 257 252 245 237 234 231 225 215 198 180 171 146 102 12 6 235 213 314 190 125 161 256 238 347 12 81 66 60 65 65
262 264 268 273 275 272 271 272 277 277 272 275 256 267 240 242 231 228 216 211 199 190 171 176 165 100 69 115 221 198 210 232 238 13 76 280 275 300 14 43 91 88 83 77 67
261 264 265 268 273 274 274 280 281 266 237 218 237 219 242 225 223 213 199 188 170 169 164 163 133 208 205 200 158 140 185 206 243 229 119 244 258 320 32 81 96 98 95 89 83
258 262 265 265 267 269 269 251 239 276 296 256 250 251 248 230 205 204 189 179 176 177 122 78 227 223 136 175 191 200 184 246 287 261 170 265 254 73 44 53 105 115 107 103 103
256 255 258 264 264 262 262 255 255 288 264 259 246 243 241 233 227 204 191 194 165 147 191 182 218 154 161 168 187 211 203 209 224 335 282 327 283 173 63 91 101 107 114 113 109
252 254 252 255 258 259 257 262 243 278 287 251 218 225 202 201 226 215 201 187 187 188 173 234 240 175 171 204 187 221 201 174 182 113 234 59 278 200 135 110 90 127 129 123 116
244 255 252 248 239 236 247 240 202 161 274 164 160 163 164 184 141 156 186 189 166 167 148 228 175 182 199 219 156 233 137 160 147 155 71 276 37 258 140 180 172 161 147 139 128
250 257 242 240 235 238 233 194 161 122 239 230 145 164 136 168 123 114 151 150 147 130 278 237 211 165 200 164 168 144 80 49 49 81 284 227 179 249 191 185 160 177 166 154 143
243 254 249 240 232 226 218 173 155 202 135 195 188 164 156 162 160 151 161 166 160 141 222 235 221 203 154 99 87 107 107 217 351 345 227 136 151 244 171 165 173 176 176 166 156
248 249 246 237 245 236 191 176 192 198 215 95 104 102 183 160 207 165 131 189 242 129 128 172 254 167 186 190 172 183 165 158 207 204 239 321 231 257 314 273 197 179 172 169 165
256 250 251 242 232 227 184 209 212 165 193 140 111 158 228 225 152 143 195 204 198 180 188 172 271 221 138 141 141 182 187 167 105 57 57 224 276 228 114 91 148 166 175 178 173
244 251 249 245 240 210 211 212 215 183 131 162 198 183 191 201 160 183 179 202 207 183 174 215 180 222 144 104 43 163 160 95 19 174 248 271 268 235 204 188 176 173 183 185 180
238 239 245 252 232 207 216 234 208 212 197 183 212 195 197 178 183 197 203 240 196 172 170 164 136 279 130 205 174 154 181 68 127 154 175 238 250 215 196 184 184 187 191 188 186
225 216 222 211 192 221 214 181 193 198 216 228 306 226 182 173 178 206 203 241 173 150 162 183 142 178 201 160 336 239 196 163 160 212 233 158 256 8 240 180 183 189 195 193 194
218 217 196 196 217 229 186 217 198 178 199 195 223 225 151 179 181 188 176 166 167 152 157 180 149 176 323 45 359 223 200 175 97 76 198 150 253 25 112 151 184 187 196 197 198
203 211 197 211 246 243 221 209 205 203 215 205 202 171 167 190 198 175 190 167 192 125 154 118 172 193 194 162 89 197 195 184 163 199 186 231 249 219 170 176 187 196 196 199 204
209 219 188 205 231 235 289 177 197 206 220 207 234 210 192 197 185 190 187 132 60 169 163 172 201 191 174 177 124 240 248 190 202 227 219 248 209 201 194 190 191 183 185 198 205
198 171 177 167 214 190 206 191 222 209 170 207 224 208 217 209 191 185 173 182 181 194 167 180 199 154 169 110 220 230 248 223 229 226 259 173 256 198 171 180 178 193 199 206 205
219 196 166 176 169 182 203 190 211 346 114 71 358 188 231 233 161 127 157 166 154 157 167 161 135 131 195 121 154 255 236 209 190 176 179 210 229 151 182 190 197 206 205 202 198
Wind_Speed_850mb
9 9 9 9 10 11 12 13 14 15 16 18 20 21 23 25 26 27 27 15 11 12 11 9 7 3 2 4 5 5 9 2 7 11 5 5 11 1 10 9 4 8 15 22 29
14 14 13 13 13 14 15 16 17 17 19 21 22 24 26 28 30 31 15 9 9 7 8 9 7 4 4 3 3 8 7 12 7 7 2 9 4 15 9 11 8 10 22 19 15
19 18 18 17 17 17 18 18 20 22 22 24 25 26 28 28 30 6 1 1 2 6 12 11 8 2 2 0 0 4 8 5 4 11 9 5 8 5 6 11 4 17 36 18 12
23 22 22 22 21 21 21 22 23 24 25 26 27 27 26 23 8 4 5 5 4 7 11 11 4 1 3 1 3 2 10 10 7 3 6 5 8 11 14 28 20 29 11 7 5
26 25 26 26 26 26 26 27 27 27 26 26 25 26 25 15 18 22 18 15 13 13 17 14 9 5 4 4 3 5 6 8 19 22 22 20 24 15 43 36 2 8 8 9 12
30 29 29 31 31 29 29 28 28 27 27 27 25 25 23 17 20 21 20 22 22 20 22 17 6 9 4 5 7 2 9 21 22 34 21 11 5 2 15 13 11 5 6 9 13
32 31 30 30 31 31 29 30 30 30 30 29 27 25 29 42 27 21 21 23 21 21 21 20 17 11 7 2 3 4 9 14 15 8 8 10 2 13 1 8 14 12 10 11 14
31 31 31 32 32 33 34 31 32 32 31 29 28 24 22 29 30 33 36 30 20 19 18 16 15 14 7 3 8 6 8 7 7 3 1 11 15 3 18 26 14 10 8 8 11
29 30 30 31 32 32 33 32 30 32 31 28 26 18 20 27 25 30 28 27 25 22 18 13 15 7 7 10 8 8 7 8 16 4 3 6 12 7 32 28 13 12 12 13 14
31 29 29 29 31 35 32 30 30 31 32 30 30 13 31 17 14 17 25 23 16 19 15 14 8 6 4 7 11 12 9 8 11 2 6 2 14 15 38 23 21 20 20 20 21
34 31 28 27 28 31 29 25 20 17 27 25 11 13 8 20 18 17 24 27 18 16 11 7 7 17 27 19 5 9 9 10 8 5 2 12 11 10 22 26 24 24 27 30 34
37 33 30 28 27 30 29 16 14 11 20 33 48 51 42 17 13 26 30 25 17 11 14 5 15 21 8 9 9 4 6 11 9 8 10 10 13 7 16 10 15 26 32 37 43
38 37 34 32 32 34 36 31 23 14 12 20 46 48 62 51 27 33 43 21 10 12 15 15 8 16 12 8 10 9 13 10 12 8 3 6 10 8 10 25 26 25 31 37 43
44 41 41 41 39 42 44 24 29 9 8 12 13 13 25 27 16 37 47 21 8 22 13 13 9 12 9 12 18 10 15 12 7 6 8 4 9 4 8 9 12 24 31 34 37
50 40 46 56 38 29 20 21 16 9 12 2 7 10 20 20 19 7 37 16 14 14 13 14 14 11 13 17 14 12 11 13 8 8 2 4 1 10 13 9 11 22 31 34 36
63 55 50 56 55 44 29 19 32 7 21 6 9 10 10 5 3 10 10 9 9 10 4 9 4 13 16 6 14 18 12 13 9 6 2 13 12 8 11 12 13 26 33 38 38
59 61 57 59 69 56 41 37 6 11 0 11 9 10 5 9 4 7 11 12 13 10 11 2 9 6 8 9 4 9 13 1 5 1 10 3 7 15 10 8 26 41 50 44 40
60 64 62 71 66 62 51 10 12 14 14 6 8 7 14 14 9 10 11 11 11 5 6 13 9 21 13 13 14 12 13 9 13 7 6 1 11 10 0 5 33 61 60 51 45
60 56 68 75 76 76 51 15 18 13 11 17 7 8 9 10 12 8 15 13 19 22 15 12 10 2 6 7 12 10 8 6 13 3 6 8 8 3 5 6 28 49 58 56 49
55 64 72 77 73 78 22 28 16 14 9 8 25 18 19 14 15 16 19 12 12 23 11 11 3 2 4 9 7 8 13 7 4 3 8 8 9 11 14 18 17 29 51 58 48
52 33 36 66 62 37 16 12 14 21 20 14 25 16 13 16 18 13 14 5 11 12 20 10 8 2 7 11 18 7 6 4 8 9 10 3 11 10 18 28 37 45 62 63 54
55 12 24 48 25 7 25 12 16 14 40 10 4 10 20 23 18 16 23 8 18 22 18 13 7 8 14 2 3 3 14 14 10 11 5 5 13 4 9 35 51 50 65 62 54
26 29 31 58 17 21 3 13 18 14 18 18 26 15 5 15 6 7 11 5 22 13 16 12 6 4 4 1 3 10 11 7 7 7 15 10 10 8 14 23 37 49 62 57 51
17 6 15 35 12 22 30 18 17 21 10 21 10 13 11 17 14 17 16 7 13 7 15 13 10 11 11 8 3 9 11 11 11 10 10 23 6 5 9 16 33 48 53 50 51
19 7 10 6 21 7 4 16 22 18 21 25 7 33 30 15 17 14 17 8 1 18 17 18 15 14 6 2 5 3 8 14 19 22 19 21 18 16 21 25 47 49 39 44 50
14 9 9 4 4 13 14 7 23 27 16 14 30 26 29 22 22 18 27 13 10 7 13 4 6 11 10 5 3 10 29 18 25 11 11 3 14 9 13 26 40 43 37 41 45
18 12 9 11 6 7 8 12 10 3 6 10 7 1 21 20 2 14 15 22 20 18 15 13 10 7 5 4 7 12 33 31 14 10 16 20 19 11 8 19 45 39 38 41 45
Wind_Direction_850mb
264 271 275 280 289 295 299 302 305 311 314 313 313 314 315 315 313 311 311 294 266 244 241 239 221 229 332 62 45 88 61 189 226 162 239 349 11 333 322 261 292 296 317 316 310
265 268 269 274 278 283 289 294 300 301 303 305 307 309 312 314 314 308 292 284 267 238 204 180 174 120 80 59 27 81 109 223 215 206 233 316 307 320 333 317 287 304 334 325 303
266 266 267 269 273 278 282 286 290 293 297 301 304 307 310 318 321 330 197 34 116 163 161 155 145 34 78 268 208 132 192 227 279 237 283 289 294 259 292 309 292 341 321 331 274
266 269 270 272 273 276 277 280 283 287 292 295 298 302 305 312 310 303 224 216 201 190 187 191 218 52 83 246 197 301 247 231 282 296 306 283 301 285 246 270 302 323 354 80 53
264 268 272 275 277 278 279 281 283 285 288 291 295 299 304 288 263 270 259 252 254 242 226 224 239 193 184 206 180 185 279 264 278 281 280 276 268 267 282 304 290 128 59 38 15
264 266 269 273 274 276 279 279 280 285 288 290 291 291 290 265 266 264 260 256 256 250 237 232 236 224 192 201 177 319 289 289 290 280 273 237 282 158 87 62 79 81 39 7 353
260 262 264 267 273 273 273 277 278 279 282 287 288 287 274 265 266 262 262 257 250 242 238 230 230 199 176 285 278 326 330 329 266 279 235 172 222 231 36 42 40 20 8 358 3
262 263 264 266 267 272 273 273 275 278 279 283 285 284 262 265 254 253 252 248 237 229 226 228 219 216 206 168 21 29 48 355 286 156 104 156 265 65 49 8 47 36 36 32 25
264 268 270 271 270 267 270 275 275 277 279 279 280 264 265 257 252 245 237 234 231 225 215 198 180 171 146 102 12 6 235 213 314 190 125 161 256 238 347 12 81 66 60 65 65
262 264 268 273 275 272 271 272 277 277 272 275 256 267 240 242 231 228 216 211 199 190 171 176 165 100 69 115 221 198 210 232 238 13 76 280 275 300 14 43 91 88 83 77 67
261 264 265 268 273 274 274 280 281 266 237 218 237 219 242 225 223 213 199 188 170 169 164 163 133 208 205 200 158 140 185 206 243 229 119 244 258 320 32 81 96 98 95 89 83
258 262 265 265 267 269 269 251 239 276 296 256 250 251 248 230 205 204 189 179 176 177 122 78 227 223 136 175 191 200 184 246 287 261 170 265 254 73 44 53 105 115 107 103 103
256 255 258 264 264 262 262 255 255 288 264 259 246 243 241 233 227 204 191 194 165 147 191 182 218 154 161 168 187 211 203 209 224 335 282 327 283 173 63 91 101 107 114 113 109
252 254 252 255 258 259 257 262 243 278 287 251 218 225 202 201 226 215 201 187 187 188 173 234 240 175 171 204 187 221 201 174 182 113 234 59 278 200 135 110 90 127 129 123 116
244 255 252 248 239 236 247 240 202 161 274 164 160 163 164 184 141 156 186 189 166 167 148 228 175 182 199 219 156 233 137 160 147 155 71 276 37 258 140 180 172 161 147 139 128
250 257 242 240 235 238 233 194 161 122 239 230 145 164 136 168 123 114 151 150 147 130 278 237 211 165 200 164 168 144 80 49 49 81 284 227 179 249 191 185 160 177 166 154 143
243 254 249 240 232 226 218 173 155 202 135 195 188 164 156 162 160 151 161 166 160 141 222 235 221 203 154 99 87 107 107 217 351 345 227 136 151 244 171 165 173 176 176 166 156
248 249 246 237 245 236 191 176 192 198 215 95 104 102 183 160 207 165 131 189 242 129 128 172 254 167 186 190 172 183 165 158 207 204 239 321 231 257 314 273 197 179 172 169 165
256 250 251 242 232 227 184 209 212 165 193 140 111 158 228 225 152 143 195 204 198 180 188 172 271 221 138 141 141 182 187 167 105 57 57 224 276 228 114 91 148 166 175 178 173
244 251 249 245 240 210 211 212 215 183 131 162 198 183 191 201 160 183 179 202 207 183 174 215 180 222 144 104 43 163 160 95 19 174 248 271 268 235 204 188 176 173 183 185 180
238 239 245 252 232 207 216 234 208 212 197 183 212 195 197 178 183 197 203 240 196 172 170 164 136 279 130 205 174 154 181 68 127 154 175 238 250 215 196 184 184 187 191 188 186
225 216 222 211 192 221 214 181 193 198 216 228 306 226 182 173 178 206 203 241 173 150 162 183 142 178 201 160 336 239 196 163 160 212 233 158 256 8 240 180 183 189 195 193 194
218 217 196 196 217 229 186 217 198 178 199 195 223 225 151 179 181 188 176 166 167 152 157 180 149 176 323 45 359 223 200 175 97 76 198 150 253 25 112 151 184 187 196 197 198
203 211 197 211 246 243 221 209 205 203 215 205 202 171 167 190 198 175 190 167 192 125 154 118 172 193 194 162 89 197 195 184 163 199 186 231 249 219 170 176 187 196 196 199 204
209 219 188 205 231 235 289 177 197 206 220 207 234 210 192 197 185 190 187 132 60 169 163 172 201 191 174 177 124 240 248 190 202 227 219 248 209 201 194 190 191 183 185 198 205
198 171 177 167 214 190 206 191 222 209 170 207 224 208 217 209 191 185 173 182 181 194 167 180 199 154 169 110 220 230 248 223 229 226 259 173 256 198 171 180 178 193 199 206 205
219 196 166 176 169 182 203 190 211 346 114 71 358 188 231 233 161 127 157 166 154 157 167 161 135 131 195 121 154 255 236 209 190 176 179 210 229 151 182 190 197 206 205 202 198